Tracking 33850 objects as of 19-Apr-2026
HD Live streaming from Space Station
objects crossing your sky now

USA 362

Track USA 362 now!
10-day predictions


NORAD ID: 59822
Int'l Code: 2024-096J
Perigee: 582.8 km
Apogee: 585.6 km
Inclination: 70.0 °
Period: 96.2 minutes
Semi major axis: 6955 km
RCS: Unknown
Launch date: May 22, 2024
Source: United States (US)
Launch site: AIR FORCE WESTERN TEST RANGE (AFWTR)
Your satellite tracking list
Your tracking list is empty




NASA's NSSDC Master Catalog

Two Line Element Set (TLE):
1 59822U 24096J   26080.10106206 0.00000000  00000-0  00000-0 0    02
2 59822  70.0040 188.0276 0002000   3.7814 356.2185 14.96713208    07
Source of the keplerian elements: McCants